Year,Month,Day,Hour,Minute,Value (Times are PST for temperature in C)
2017,02,14,00,00,-0.10
2017,02,14,00,01,-0.10
2017,02,14,00,02,0.00
2017,02,14,00,03,0.00
2017,02,14,00,04,0.00
2017,02,14,00,05,0.00
2017,02,14,00,06,0.10
2017,02,14,00,07,0.10
2017,02,14,00,08,0.10
2017,02,14,00,09,0.10
2017,02,14,00,10,0.20
2017,02,14,00,11,0.20
2017,02,14,00,12,0.20
2017,02,14,00,13,0.20
2017,02,14,00,14,0.30
2017,02,14,00,15,0.30
2017,02,14,00,16,0.30
2017,02,14,00,17,0.30
2017,02,14,00,18,0.30
2017,02,14,00,19,0.40
2017,02,14,00,20,0.40
2017,02,14,00,21,0.40
2017,02,14,00,22,0.40
2017,02,14,00,23,0.40
2017,02,14,00,24,0.50
2017,02,14,00,25,0.50
2017,02,14,00,26,0.50
2017,02,14,00,27,0.50
2017,02,14,00,28,0.50
2017,02,14,00,29,0.60
2017,02,14,00,30,0.60
2017,02,14,00,31,0.70
2017,02,14,00,32,0.70
2017,02,14,00,33,0.80
2017,02,14,00,34,0.80
2017,02,14,00,35,0.80
2017,02,14,00,36,0.90
2017,02,14,00,37,0.90
2017,02,14,00,38,0.90
2017,02,14,00,39,1.00
2017,02,14,00,40,1.00
2017,02,14,00,41,1.00
2017,02,14,00,42,1.00
2017,02,14,00,43,1.00
2017,02,14,00,44,0.90
2017,02,14,00,45,0.90
2017,02,14,00,46,0.90
2017,02,14,00,47,0.80
2017,02,14,00,48,0.80
2017,02,14,00,49,0.80
2017,02,14,00,50,0.80
2017,02,14,00,51,0.70
2017,02,14,00,52,0.70
2017,02,14,00,53,0.70
2017,02,14,00,54,0.70
2017,02,14,00,55,0.70
2017,02,14,00,56,0.80
2017,02,14,00,57,0.80
2017,02,14,00,58,0.80
2017,02,14,00,59,0.80
2017,02,14,01,00,0.80
2017,02,14,01,01,0.80
2017,02,14,01,02,0.90
2017,02,14,01,03,0.90
2017,02,14,01,04,0.90
2017,02,14,01,05,1.00
2017,02,14,01,06,1.00
2017,02,14,01,07,1.00
2017,02,14,01,08,1.10
2017,02,14,01,09,1.10
2017,02,14,01,10,1.20
2017,02,14,01,11,1.30
2017,02,14,01,12,1.30
2017,02,14,01,13,1.30
2017,02,14,01,14,1.40
2017,02,14,01,15,1.50
2017,02,14,01,16,1.60
2017,02,14,01,17,1.70
2017,02,14,01,18,1.70
2017,02,14,01,19,1.80
2017,02,14,01,20,1.80
2017,02,14,01,21,1.90
2017,02,14,01,22,1.90
2017,02,14,01,23,1.90
2017,02,14,01,24,1.90
2017,02,14,01,25,2.00
2017,02,14,01,26,2.00
2017,02,14,01,27,2.00
2017,02,14,01,28,2.00
2017,02,14,01,29,2.00
2017,02,14,01,30,2.00
2017,02,14,01,31,2.00
2017,02,14,01,32,2.00
2017,02,14,01,33,2.10
2017,02,14,01,34,2.10
2017,02,14,01,35,2.10
2017,02,14,01,36,2.10
2017,02,14,01,37,2.00
2017,02,14,01,38,2.10
2017,02,14,01,39,2.10
2017,02,14,01,40,2.10
2017,02,14,01,41,2.10
2017,02,14,01,42,2.20
2017,02,14,01,43,2.20
2017,02,14,01,44,2.30
2017,02,14,01,45,2.30
2017,02,14,01,46,2.40
2017,02,14,01,47,2.40
2017,02,14,01,48,2.40
2017,02,14,01,49,2.50
2017,02,14,01,50,2.50
2017,02,14,01,51,2.50
2017,02,14,01,52,2.50
2017,02,14,01,53,2.40
2017,02,14,01,54,2.40
2017,02,14,01,55,2.30
2017,02,14,01,56,2.30
2017,02,14,01,57,2.30
2017,02,14,01,58,2.30
2017,02,14,01,59,2.20
2017,02,14,02,00,2.20
2017,02,14,02,01,2.20
2017,02,14,02,02,2.20
2017,02,14,02,03,2.20
2017,02,14,02,04,2.10
2017,02,14,02,05,2.10
2017,02,14,02,06,2.10
2017,02,14,02,07,2.10
2017,02,14,02,08,2.10
2017,02,14,02,09,2.10
2017,02,14,02,10,2.00
2017,02,14,02,11,2.00
2017,02,14,02,12,2.00
2017,02,14,02,13,1.90
2017,02,14,02,14,1.90
2017,02,14,02,15,1.90
2017,02,14,02,16,1.90
2017,02,14,02,17,1.90
2017,02,14,02,18,1.90
2017,02,14,02,19,1.90
2017,02,14,02,20,1.90
2017,02,14,02,21,1.90
2017,02,14,02,22,1.90
2017,02,14,02,23,1.90
2017,02,14,02,24,1.90
2017,02,14,02,25,1.90
2017,02,14,02,26,1.80
2017,02,14,02,27,1.90
2017,02,14,02,28,1.90
2017,02,14,02,29,1.90
2017,02,14,02,30,1.90
2017,02,14,02,31,1.90
2017,02,14,02,32,1.90
2017,02,14,02,33,1.90
2017,02,14,02,34,1.90
2017,02,14,02,35,1.90
2017,02,14,02,36,1.80
2017,02,14,02,37,1.80
2017,02,14,02,38,1.80
2017,02,14,02,39,1.80
2017,02,14,02,40,1.80
2017,02,14,02,41,1.80
2017,02,14,02,42,1.80
2017,02,14,02,43,1.80
2017,02,14,02,44,1.80
2017,02,14,02,45,1.90
2017,02,14,02,46,1.90
2017,02,14,02,47,1.90
2017,02,14,02,48,1.90
2017,02,14,02,49,1.80
2017,02,14,02,50,1.80
2017,02,14,02,51,1.80
2017,02,14,02,52,1.80
2017,02,14,02,53,1.80
2017,02,14,02,54,1.80
2017,02,14,02,55,1.80
2017,02,14,02,56,1.80
2017,02,14,02,57,1.80
2017,02,14,02,58,1.80
2017,02,14,02,59,1.80
2017,02,14,03,00,1.80
2017,02,14,03,01,1.80
2017,02,14,03,02,1.80
2017,02,14,03,03,1.80
2017,02,14,03,04,1.90
2017,02,14,03,05,1.90
2017,02,14,03,06,1.90
2017,02,14,03,07,1.90
2017,02,14,03,08,1.90
2017,02,14,03,09,1.90
2017,02,14,03,10,1.90
2017,02,14,03,11,1.90
2017,02,14,03,12,1.90
2017,02,14,03,13,2.00
2017,02,14,03,14,2.00
2017,02,14,03,15,2.00
2017,02,14,03,16,2.00
2017,02,14,03,17,2.00
2017,02,14,03,18,2.00
2017,02,14,03,19,2.00
2017,02,14,03,20,2.00
2017,02,14,03,21,2.00
2017,02,14,03,22,2.10
2017,02,14,03,23,2.10
2017,02,14,03,24,2.10
2017,02,14,03,25,2.10
2017,02,14,03,26,2.10
2017,02,14,03,27,2.10
2017,02,14,03,28,2.10
2017,02,14,03,29,2.10
2017,02,14,03,30,2.10
2017,02,14,03,31,2.10
2017,02,14,03,32,2.10
2017,02,14,03,33,2.10
2017,02,14,03,34,2.10
2017,02,14,03,35,2.10
2017,02,14,03,36,2.10
2017,02,14,03,37,2.10
2017,02,14,03,38,2.10
2017,02,14,03,39,2.10
2017,02,14,03,40,2.10
2017,02,14,03,41,2.10
2017,02,14,03,42,2.00
2017,02,14,03,43,2.10
2017,02,14,03,44,2.10
2017,02,14,03,45,2.10
2017,02,14,03,46,2.10
2017,02,14,03,47,2.10
2017,02,14,03,48,2.10
2017,02,14,03,49,2.10
2017,02,14,03,50,2.20
2017,02,14,03,51,2.20
2017,02,14,03,52,2.20
2017,02,14,03,53,2.20
2017,02,14,03,54,2.20
2017,02,14,03,55,2.20
2017,02,14,03,56,2.20
2017,02,14,03,57,2.30
2017,02,14,03,58,2.30
2017,02,14,03,59,2.30
2017,02,14,04,00,2.30
2017,02,14,04,01,2.30
2017,02,14,04,02,2.30
2017,02,14,04,03,2.30
2017,02,14,04,04,2.30
2017,02,14,04,05,2.30
2017,02,14,04,06,2.30
2017,02,14,04,07,2.40
2017,02,14,04,08,2.40
2017,02,14,04,09,2.40
2017,02,14,04,10,2.40
2017,02,14,04,11,2.40
2017,02,14,04,12,2.40
2017,02,14,04,13,2.50
2017,02,14,04,14,2.50
2017,02,14,04,15,2.50
2017,02,14,04,16,2.50
2017,02,14,04,17,2.50
2017,02,14,04,18,2.50
2017,02,14,04,19,2.60
2017,02,14,04,20,2.60
2017,02,14,04,21,2.60
2017,02,14,04,22,2.60
2017,02,14,04,23,2.70
2017,02,14,04,24,2.70
2017,02,14,04,25,2.70
2017,02,14,04,26,2.70
2017,02,14,04,27,2.70
2017,02,14,04,28,2.70
2017,02,14,04,29,2.70
2017,02,14,04,30,2.70
2017,02,14,04,31,2.70
2017,02,14,04,32,2.70
2017,02,14,04,33,2.80
2017,02,14,04,34,2.80
2017,02,14,04,35,2.80
2017,02,14,04,36,2.80
2017,02,14,04,37,2.80
2017,02,14,04,38,2.80
2017,02,14,04,39,2.80
2017,02,14,04,40,2.80
2017,02,14,04,41,2.80
2017,02,14,04,42,2.80
2017,02,14,04,43,2.90
2017,02,14,04,44,2.90
2017,02,14,04,45,2.90
2017,02,14,04,46,2.90
2017,02,14,04,47,3.00
2017,02,14,04,48,3.00
2017,02,14,04,49,3.00
2017,02,14,04,50,3.00
2017,02,14,04,51,3.00
2017,02,14,04,52,3.00
2017,02,14,04,53,3.10
2017,02,14,04,54,3.10
2017,02,14,04,55,3.10
2017,02,14,04,56,3.10
2017,02,14,04,57,3.20
2017,02,14,04,58,3.20
2017,02,14,04,59,3.20
2017,02,14,05,00,3.20
2017,02,14,05,01,3.10
2017,02,14,05,02,3.10
2017,02,14,05,03,3.10
2017,02,14,05,04,3.10
2017,02,14,05,05,3.10
2017,02,14,05,06,3.10
2017,02,14,05,07,3.20
2017,02,14,05,08,3.20
2017,02,14,05,09,3.20
2017,02,14,05,10,3.20
2017,02,14,05,11,3.20
2017,02,14,05,12,3.20
2017,02,14,05,13,3.20
2017,02,14,05,14,3.20
2017,02,14,05,15,3.20
2017,02,14,05,16,3.20
2017,02,14,05,17,3.20
2017,02,14,05,18,3.20
2017,02,14,05,19,3.20
2017,02,14,05,20,3.20
2017,02,14,05,21,3.20
2017,02,14,05,22,3.20
2017,02,14,05,23,3.20
2017,02,14,05,24,3.20
2017,02,14,05,25,3.30
2017,02,14,05,26,3.30
2017,02,14,05,27,3.20
2017,02,14,05,28,3.20
2017,02,14,05,29,3.20
2017,02,14,05,30,3.20
2017,02,14,05,31,3.20
2017,02,14,05,32,3.20
2017,02,14,05,33,3.20
2017,02,14,05,34,3.30
2017,02,14,05,35,3.30
2017,02,14,05,36,3.30
2017,02,14,05,37,3.40
2017,02,14,05,38,3.40
2017,02,14,05,39,3.40
2017,02,14,05,40,3.50
2017,02,14,05,41,3.50
2017,02,14,05,42,3.60
2017,02,14,05,43,3.70
2017,02,14,05,44,3.70
2017,02,14,05,45,3.80
2017,02,14,05,46,3.90
2017,02,14,05,47,3.90
2017,02,14,05,48,4.00
2017,02,14,05,49,4.10
2017,02,14,05,50,4.10
2017,02,14,05,51,4.10
2017,02,14,05,52,4.10
2017,02,14,05,53,4.10
2017,02,14,05,54,4.20
2017,02,14,05,55,4.10
2017,02,14,05,56,4.10
2017,02,14,05,57,4.10
2017,02,14,05,58,4.10
2017,02,14,05,59,4.10
2017,02,14,06,00,4.10
2017,02,14,06,01,4.10
2017,02,14,06,02,4.20
2017,02,14,06,03,4.20
2017,02,14,06,04,4.20
2017,02,14,06,05,4.10
2017,02,14,06,06,4.10
2017,02,14,06,07,4.10
2017,02,14,06,08,4.00
2017,02,14,06,09,4.00
2017,02,14,06,10,4.00
2017,02,14,06,11,4.00
2017,02,14,06,12,4.10
2017,02,14,06,13,4.10
2017,02,14,06,14,4.10
2017,02,14,06,15,4.10
2017,02,14,06,16,4.10
2017,02,14,06,17,4.10
2017,02,14,06,18,4.20
2017,02,14,06,19,4.30
2017,02,14,06,20,4.40
2017,02,14,06,21,4.40
2017,02,14,06,22,4.50
2017,02,14,06,23,4.50
2017,02,14,06,24,4.60
2017,02,14,06,25,4.70
2017,02,14,06,26,4.70
2017,02,14,06,27,4.70
2017,02,14,06,28,4.70
2017,02,14,06,29,4.70
2017,02,14,06,30,4.70
2017,02,14,06,31,4.70
2017,02,14,06,32,4.70
2017,02,14,06,33,4.80
2017,02,14,06,34,4.90
2017,02,14,06,35,5.00
2017,02,14,06,36,5.20
2017,02,14,06,37,5.40
2017,02,14,06,38,5.60
2017,02,14,06,39,5.80
2017,02,14,06,40,6.00
2017,02,14,06,41,6.20
2017,02,14,06,42,6.40
2017,02,14,06,43,6.60
2017,02,14,06,44,6.80
2017,02,14,06,45,7.00
2017,02,14,06,46,7.20
2017,02,14,06,47,7.50
2017,02,14,06,48,7.80
2017,02,14,06,49,8.00
2017,02,14,06,50,8.10
2017,02,14,06,51,8.30
2017,02,14,06,52,8.40
2017,02,14,06,53,8.50
2017,02,14,06,54,8.60
2017,02,14,06,55,8.70
2017,02,14,06,56,8.70
2017,02,14,06,57,8.70
2017,02,14,06,58,8.70
2017,02,14,06,59,8.60
2017,02,14,07,00,8.50
2017,02,14,07,01,8.50
2017,02,14,07,02,8.40
2017,02,14,07,03,8.30
2017,02,14,07,04,8.20
2017,02,14,07,05,8.10
2017,02,14,07,06,8.10
2017,02,14,07,07,8.10
2017,02,14,07,08,8.00
2017,02,14,07,09,8.00
2017,02,14,07,10,7.90
2017,02,14,07,11,7.90
2017,02,14,07,12,7.90
2017,02,14,07,13,7.90
2017,02,14,07,14,7.90
2017,02,14,07,15,7.80
2017,02,14,07,16,7.80
2017,02,14,07,17,7.80
2017,02,14,07,18,7.80
2017,02,14,07,19,7.80
2017,02,14,07,20,7.80
2017,02,14,07,21,7.70
2017,02,14,07,22,7.70
2017,02,14,07,23,7.60
2017,02,14,07,24,7.50
2017,02,14,07,25,7.40
2017,02,14,07,26,7.20
2017,02,14,07,27,7.20
2017,02,14,07,28,7.10
2017,02,14,07,29,7.00
2017,02,14,07,30,6.90
2017,02,14,07,31,6.80
2017,02,14,07,32,6.80
2017,02,14,07,33,6.70
2017,02,14,07,34,6.70
2017,02,14,07,35,6.60
2017,02,14,07,36,6.60
2017,02,14,07,37,6.50
2017,02,14,07,38,6.50
2017,02,14,07,39,6.50
2017,02,14,07,40,6.50
2017,02,14,07,41,6.50
2017,02,14,07,42,6.40
2017,02,14,07,43,6.40
2017,02,14,07,44,6.30
2017,02,14,07,45,6.30
2017,02,14,07,46,6.20
2017,02,14,07,47,6.20
2017,02,14,07,48,6.20
2017,02,14,07,49,6.10
2017,02,14,07,50,6.10
2017,02,14,07,51,6.00
2017,02,14,07,52,6.00
2017,02,14,07,53,5.90
2017,02,14,07,54,5.90
2017,02,14,07,55,6.00
2017,02,14,07,56,6.00
2017,02,14,07,57,6.10
2017,02,14,07,58,6.20
2017,02,14,07,59,6.30
2017,02,14,08,00,6.30
2017,02,14,08,01,6.40
2017,02,14,08,02,6.40
2017,02,14,08,03,6.40
2017,02,14,08,04,6.40
2017,02,14,08,05,6.50
2017,02,14,08,06,6.50
2017,02,14,08,07,6.50
2017,02,14,08,08,6.50
2017,02,14,08,09,6.50
2017,02,14,08,10,6.40
2017,02,14,08,11,6.40
2017,02,14,08,12,6.30
2017,02,14,08,13,6.30
2017,02,14,08,14,6.20
2017,02,14,08,15,6.10
2017,02,14,08,16,6.10
2017,02,14,08,17,6.10
2017,02,14,08,18,6.10
2017,02,14,08,19,6.10
2017,02,14,08,20,6.10
2017,02,14,08,21,6.10
2017,02,14,08,22,6.10
2017,02,14,08,23,6.10
2017,02,14,08,24,6.00
2017,02,14,08,25,6.00
2017,02,14,08,26,6.00
2017,02,14,08,27,5.90
2017,02,14,08,28,5.90
2017,02,14,08,29,5.90
2017,02,14,08,30,5.90
2017,02,14,08,31,5.90
2017,02,14,08,32,5.80
2017,02,14,08,33,5.90
2017,02,14,08,34,5.90
2017,02,14,08,35,5.90
2017,02,14,08,36,5.90
2017,02,14,08,37,5.90
2017,02,14,08,38,5.90
2017,02,14,08,39,6.00
2017,02,14,08,40,6.10
2017,02,14,08,41,6.10
2017,02,14,08,42,6.20
2017,02,14,08,43,6.30
2017,02,14,08,44,6.30
2017,02,14,08,45,6.30
2017,02,14,08,46,6.30
2017,02,14,08,47,6.30
2017,02,14,08,48,6.30
2017,02,14,08,49,6.30
2017,02,14,08,50,6.30
2017,02,14,08,51,6.30
2017,02,14,08,52,6.30
2017,02,14,08,53,6.40
2017,02,14,08,54,6.40
2017,02,14,08,55,6.40
2017,02,14,08,56,6.40
2017,02,14,08,57,6.50
2017,02,14,08,58,6.70
2017,02,14,08,59,7.10
2017,02,14,09,00,7.30
2017,02,14,09,01,7.60
2017,02,14,09,02,7.80
2017,02,14,09,03,8.00
2017,02,14,09,04,8.20
2017,02,14,09,05,8.40
2017,02,14,09,06,8.50
2017,02,14,09,07,8.60
2017,02,14,09,08,8.80
2017,02,14,09,09,8.80
2017,02,14,09,10,8.90
2017,02,14,09,11,9.00
2017,02,14,09,12,9.00
2017,02,14,09,13,9.00
2017,02,14,09,14,9.00
2017,02,14,09,15,9.20
2017,02,14,09,16,9.30
2017,02,14,09,17,9.30
2017,02,14,09,18,9.40
2017,02,14,09,19,9.40
2017,02,14,09,20,9.40
2017,02,14,09,21,9.40
2017,02,14,09,22,9.40
2017,02,14,09,23,9.50
2017,02,14,09,24,9.50
2017,02,14,09,25,9.50
2017,02,14,09,26,9.50
2017,02,14,09,27,9.50
2017,02,14,09,28,9.50
2017,02,14,09,29,9.50
2017,02,14,09,30,9.50
2017,02,14,09,31,9.50
2017,02,14,09,32,9.60
2017,02,14,09,33,9.60
2017,02,14,09,34,9.60
2017,02,14,09,35,9.60
2017,02,14,09,36,9.70
2017,02,14,09,37,9.70
2017,02,14,09,38,9.70
2017,02,14,09,39,9.70
2017,02,14,09,40,9.70
2017,02,14,09,41,9.70
2017,02,14,09,42,9.70
2017,02,14,09,43,9.70
2017,02,14,09,44,9.70
2017,02,14,09,45,9.70
2017,02,14,09,46,9.70
2017,02,14,09,47,9.70
2017,02,14,09,48,9.80
2017,02,14,09,49,9.80
2017,02,14,09,50,9.80
2017,02,14,09,51,9.80
2017,02,14,09,52,9.80
2017,02,14,09,53,9.80
2017,02,14,09,54,9.80
2017,02,14,09,55,9.80
2017,02,14,09,56,9.80
2017,02,14,09,57,9.80
2017,02,14,09,58,9.80
2017,02,14,09,59,9.80
2017,02,14,10,00,9.80
2017,02,14,10,01,9.80
2017,02,14,10,02,9.80
2017,02,14,10,03,9.80
2017,02,14,10,04,9.80
2017,02,14,10,05,9.80
2017,02,14,10,06,9.80
2017,02,14,10,07,9.90
2017,02,14,10,08,9.90
2017,02,14,10,09,9.90
2017,02,14,10,10,9.90
2017,02,14,10,11,9.90
2017,02,14,10,12,9.90
2017,02,14,10,13,9.90
2017,02,14,10,14,9.90
2017,02,14,10,15,10.00
2017,02,14,10,16,9.90
2017,02,14,10,17,10.00
2017,02,14,10,18,10.00
2017,02,14,10,19,10.00
2017,02,14,10,20,10.00
2017,02,14,10,21,10.00
2017,02,14,10,22,10.00
2017,02,14,10,23,10.00
2017,02,14,10,24,10.00
2017,02,14,10,25,10.00
2017,02,14,10,26,10.00
2017,02,14,10,27,10.00
2017,02,14,10,28,9.90
2017,02,14,10,29,9.90
2017,02,14,10,30,9.90
2017,02,14,10,31,9.80
2017,02,14,10,32,9.80
2017,02,14,10,33,9.70
2017,02,14,10,34,9.70
2017,02,14,10,35,9.60
2017,02,14,10,36,9.60
2017,02,14,10,37,9.60
2017,02,14,10,38,9.50
2017,02,14,10,39,9.50
2017,02,14,10,40,9.50
2017,02,14,10,41,9.40
2017,02,14,10,42,9.40
2017,02,14,10,43,9.40
2017,02,14,10,44,9.40
2017,02,14,10,45,9.40
2017,02,14,10,46,9.30
2017,02,14,10,47,9.30
2017,02,14,10,48,9.30
2017,02,14,10,49,9.30
2017,02,14,10,50,9.20
2017,02,14,10,51,9.20
2017,02,14,10,52,9.20
2017,02,14,10,53,9.20
2017,02,14,10,54,9.20
2017,02,14,10,55,9.20
2017,02,14,10,56,9.20
2017,02,14,10,57,9.20
2017,02,14,10,58,9.20
2017,02,14,10,59,9.10
2017,02,14,11,00,9.10
2017,02,14,11,01,9.10
2017,02,14,11,02,9.10
2017,02,14,11,03,9.00
2017,02,14,11,04,9.00
2017,02,14,11,05,9.00
2017,02,14,11,06,9.00
2017,02,14,11,07,8.90
2017,02,14,11,08,8.90
2017,02,14,11,09,8.90
2017,02,14,11,10,8.80
2017,02,14,11,11,8.80
2017,02,14,11,12,8.80
2017,02,14,11,13,8.70
2017,02,14,11,14,8.70
2017,02,14,11,15,8.70
2017,02,14,11,16,8.70
2017,02,14,11,17,8.70
2017,02,14,11,18,8.80
2017,02,14,11,19,8.80
2017,02,14,11,20,8.80
2017,02,14,11,21,8.80
2017,02,14,11,22,8.90
2017,02,14,11,23,8.90
2017,02,14,11,24,9.00
2017,02,14,11,25,9.00
2017,02,14,11,26,9.10
2017,02,14,11,27,9.10
2017,02,14,11,28,9.20
2017,02,14,11,29,9.20
2017,02,14,11,30,9.20
2017,02,14,11,31,9.20
2017,02,14,11,32,9.30
2017,02,14,11,33,9.30
2017,02,14,11,34,9.30
2017,02,14,11,35,9.40
2017,02,14,11,36,9.40
2017,02,14,11,37,9.50
2017,02,14,11,38,9.50
2017,02,14,11,39,9.60
2017,02,14,11,40,9.60
2017,02,14,11,41,9.60
2017,02,14,11,42,9.60
2017,02,14,11,43,9.70
2017,02,14,11,44,9.80
2017,02,14,11,45,9.80
2017,02,14,11,46,9.90
2017,02,14,11,47,9.90
2017,02,14,11,48,10.00
2017,02,14,11,49,10.10
2017,02,14,11,50,10.10
2017,02,14,11,51,10.20
2017,02,14,11,52,10.20
2017,02,14,11,53,10.30
2017,02,14,11,54,10.30
2017,02,14,11,55,10.40
2017,02,14,11,56,10.40
2017,02,14,11,57,10.40
2017,02,14,11,58,10.40
2017,02,14,11,59,10.40
2017,02,14,12,00,10.50
2017,02,14,12,01,10.40
2017,02,14,12,02,10.40
2017,02,14,12,03,10.40
2017,02,14,12,04,10.40
2017,02,14,12,05,10.40
2017,02,14,12,06,10.40
2017,02,14,12,07,10.50
2017,02,14,12,08,10.50
2017,02,14,12,09,10.60
2017,02,14,12,10,10.60
2017,02,14,12,11,10.60
2017,02,14,12,12,10.60
2017,02,14,12,13,10.60
2017,02,14,12,14,10.60
2017,02,14,12,15,10.60
2017,02,14,12,16,10.70
2017,02,14,12,17,10.70
2017,02,14,12,18,10.70
2017,02,14,12,19,10.70
2017,02,14,12,20,10.70
2017,02,14,12,21,10.70
2017,02,14,12,22,10.70
2017,02,14,12,23,10.70
2017,02,14,12,24,10.70
2017,02,14,12,25,10.70
2017,02,14,12,26,10.80
2017,02,14,12,27,10.80
2017,02,14,12,28,10.80
2017,02,14,12,29,10.80
2017,02,14,12,30,10.80
2017,02,14,12,31,10.80
2017,02,14,12,32,10.80
2017,02,14,12,33,10.80
2017,02,14,12,34,10.80
2017,02,14,12,35,10.80
2017,02,14,12,36,10.80
2017,02,14,12,37,10.80
2017,02,14,12,38,10.80
2017,02,14,12,39,10.80
2017,02,14,12,40,10.80
2017,02,14,12,41,10.80
2017,02,14,12,42,10.80
2017,02,14,12,43,10.80
2017,02,14,12,44,10.80
2017,02,14,12,45,10.80
2017,02,14,12,46,10.70
2017,02,14,12,47,10.70
2017,02,14,12,48,10.70
2017,02,14,12,49,10.70
2017,02,14,12,50,10.70
2017,02,14,12,51,10.70
2017,02,14,12,52,10.60
2017,02,14,12,53,10.60
2017,02,14,12,54,10.60
2017,02,14,12,55,10.60
2017,02,14,12,56,10.60
2017,02,14,12,57,10.60
2017,02,14,12,58,10.60
2017,02,14,12,59,10.60
2017,02,14,13,00,10.60
2017,02,14,13,01,10.60
2017,02,14,13,02,10.50
2017,02,14,13,03,10.50
2017,02,14,13,04,10.50
2017,02,14,13,05,10.50
2017,02,14,13,06,10.40
2017,02,14,13,07,10.40
2017,02,14,13,08,10.40
2017,02,14,13,09,10.30
2017,02,14,13,10,10.30
2017,02,14,13,11,10.30
2017,02,14,13,12,10.20
2017,02,14,13,13,10.20
2017,02,14,13,14,10.20
2017,02,14,13,15,10.20
2017,02,14,13,16,10.20
2017,02,14,13,17,10.20
2017,02,14,13,18,10.20
2017,02,14,13,19,10.20
2017,02,14,13,20,10.20
2017,02,14,13,21,10.20
2017,02,14,13,22,10.20
2017,02,14,13,23,10.30
2017,02,14,13,24,10.30
2017,02,14,13,25,10.30
2017,02,14,13,26,10.30
2017,02,14,13,27,10.30
2017,02,14,13,28,10.30
2017,02,14,13,29,10.40
2017,02,14,13,30,10.40
2017,02,14,13,31,10.40
2017,02,14,13,32,10.40
2017,02,14,13,33,10.40
2017,02,14,13,34,10.40
2017,02,14,13,35,10.40
2017,02,14,13,36,10.40
2017,02,14,13,37,10.50
2017,02,14,13,38,10.50
2017,02,14,13,39,10.60
2017,02,14,13,40,10.60
2017,02,14,13,41,10.60
2017,02,14,13,42,10.70
2017,02,14,13,43,10.70
2017,02,14,13,44,10.70
2017,02,14,13,45,10.80
2017,02,14,13,46,10.80
2017,02,14,13,47,10.90
2017,02,14,13,48,11.00
2017,02,14,13,49,11.10
2017,02,14,13,50,11.10
2017,02,14,13,51,11.20
2017,02,14,13,52,11.30
2017,02,14,13,53,11.30
2017,02,14,13,54,11.30
2017,02,14,13,55,11.30
2017,02,14,13,56,11.30
2017,02,14,13,57,11.30
2017,02,14,13,58,11.40
2017,02,14,13,59,11.40
2017,02,14,14,00,11.40
2017,02,14,14,01,11.40
2017,02,14,14,02,11.40
2017,02,14,14,03,11.40
2017,02,14,14,04,11.30
2017,02,14,14,05,11.30
2017,02,14,14,06,11.30
2017,02,14,14,07,11.30
2017,02,14,14,08,11.30
2017,02,14,14,09,11.30
2017,02,14,14,10,11.30
2017,02,14,14,11,11.30
2017,02,14,14,12,11.20
2017,02,14,14,13,11.20
2017,02,14,14,14,11.20
2017,02,14,14,15,11.10
2017,02,14,14,16,11.10
2017,02,14,14,17,11.10
2017,02,14,14,18,11.10
2017,02,14,14,19,11.00
2017,02,14,14,20,11.00
2017,02,14,14,21,11.00
2017,02,14,14,22,11.00
2017,02,14,14,23,11.00
2017,02,14,14,24,11.00
2017,02,14,14,25,10.90
2017,02,14,14,26,10.90
2017,02,14,14,27,10.90
2017,02,14,14,28,10.90
2017,02,14,14,29,11.00
2017,02,14,14,30,11.00
2017,02,14,14,31,11.00
2017,02,14,14,32,11.00
2017,02,14,14,33,11.00
2017,02,14,14,34,11.00
2017,02,14,14,35,11.00
2017,02,14,14,36,11.00
2017,02,14,14,37,11.00
2017,02,14,14,38,11.00
2017,02,14,14,39,11.00
2017,02,14,14,40,11.00
2017,02,14,14,41,11.00
2017,02,14,14,42,11.00
2017,02,14,14,43,11.00
2017,02,14,14,44,11.10
2017,02,14,14,45,11.10
2017,02,14,14,46,11.10
2017,02,14,14,47,11.10
2017,02,14,14,48,11.10
2017,02,14,14,49,11.10
2017,02,14,14,50,11.10
2017,02,14,14,51,11.10
2017,02,14,14,52,11.10
2017,02,14,14,53,11.10
2017,02,14,14,54,11.10
2017,02,14,14,55,11.10
2017,02,14,14,56,11.10
2017,02,14,14,57,11.10
2017,02,14,14,58,11.10
2017,02,14,14,59,11.10
2017,02,14,15,00,11.10
2017,02,14,15,01,11.10
2017,02,14,15,02,11.10
2017,02,14,15,03,11.10
2017,02,14,15,04,11.00
2017,02,14,15,05,11.00
2017,02,14,15,06,11.00
2017,02,14,15,07,11.00
2017,02,14,15,08,11.00
2017,02,14,15,09,11.00
2017,02,14,15,10,11.00
2017,02,14,15,11,11.00
2017,02,14,15,12,10.90
2017,02,14,15,13,10.90
2017,02,14,15,14,10.90
2017,02,14,15,15,10.90
2017,02,14,15,16,10.90
2017,02,14,15,17,10.90
2017,02,14,15,18,10.90
2017,02,14,15,19,10.90
2017,02,14,15,20,10.90
2017,02,14,15,21,10.90
2017,02,14,15,22,10.90
2017,02,14,15,23,10.90
2017,02,14,15,24,10.90
2017,02,14,15,25,10.80
2017,02,14,15,26,10.80
2017,02,14,15,27,10.80
2017,02,14,15,28,10.80
2017,02,14,15,29,10.80
2017,02,14,15,30,10.80
2017,02,14,15,31,10.80
2017,02,14,15,32,10.70
2017,02,14,15,33,10.70
2017,02,14,15,34,10.70
2017,02,14,15,35,10.70
2017,02,14,15,36,10.80
2017,02,14,15,37,10.80
2017,02,14,15,38,10.80
2017,02,14,15,39,10.80
2017,02,14,15,40,10.80
2017,02,14,15,41,10.80
2017,02,14,15,42,10.70
2017,02,14,15,43,10.70
2017,02,14,15,44,10.70
2017,02,14,15,45,10.70
2017,02,14,15,46,10.70
2017,02,14,15,47,10.70
2017,02,14,15,48,10.60
2017,02,14,15,49,10.60
2017,02,14,15,50,10.50
2017,02,14,15,51,10.50
2017,02,14,15,52,10.40
2017,02,14,15,53,10.40
2017,02,14,15,54,10.30
2017,02,14,15,55,10.20
2017,02,14,15,56,10.20
2017,02,14,15,57,10.10
2017,02,14,15,58,10.00
2017,02,14,15,59,10.00
2017,02,14,16,00,9.90
2017,02,14,16,01,9.80
2017,02,14,16,02,9.70
2017,02,14,16,03,9.70
2017,02,14,16,04,9.60
2017,02,14,16,05,9.50
2017,02,14,16,06,9.50
2017,02,14,16,07,9.40
2017,02,14,16,08,9.40
2017,02,14,16,09,9.30
2017,02,14,16,10,9.30
2017,02,14,16,11,9.30
2017,02,14,16,12,9.20
2017,02,14,16,13,9.20
2017,02,14,16,14,9.10
2017,02,14,16,15,9.10
2017,02,14,16,16,9.10
2017,02,14,16,17,9.00
2017,02,14,16,18,9.00
2017,02,14,16,19,9.00
2017,02,14,16,20,8.90
2017,02,14,16,21,8.90
2017,02,14,16,22,8.90
2017,02,14,16,23,8.90
2017,02,14,16,24,8.90
2017,02,14,16,25,8.90
2017,02,14,16,26,8.90
2017,02,14,16,27,8.90
2017,02,14,16,28,8.90
2017,02,14,16,29,8.90
2017,02,14,16,30,8.80
2017,02,14,16,31,8.80
2017,02,14,16,32,8.80
2017,02,14,16,33,8.80
2017,02,14,16,34,8.90
2017,02,14,16,35,9.00
2017,02,14,16,36,9.00
2017,02,14,16,37,9.10
2017,02,14,16,38,9.10
2017,02,14,16,39,9.20
2017,02,14,16,40,9.10
2017,02,14,16,41,9.10
2017,02,14,16,42,9.10
2017,02,14,16,43,9.00
2017,02,14,16,44,9.10
2017,02,14,16,45,9.10
2017,02,14,16,46,9.10
2017,02,14,16,47,9.10
2017,02,14,16,48,9.10
2017,02,14,16,49,9.10
2017,02,14,16,50,9.10
2017,02,14,16,51,9.00
2017,02,14,16,52,8.90
2017,02,14,16,53,8.90
2017,02,14,16,54,8.80
2017,02,14,16,55,8.70
2017,02,14,16,56,8.60
2017,02,14,16,57,8.50
2017,02,14,16,58,8.40
2017,02,14,16,59,8.30
2017,02,14,17,00,8.30
2017,02,14,17,01,8.20
2017,02,14,17,02,8.20
2017,02,14,17,03,8.10
2017,02,14,17,04,8.10
2017,02,14,17,05,8.10
2017,02,14,17,06,8.00
2017,02,14,17,07,8.00
2017,02,14,17,08,7.90
2017,02,14,17,09,7.90
2017,02,14,17,10,7.80
2017,02,14,17,11,7.80
2017,02,14,17,12,7.80
2017,02,14,17,13,7.70
2017,02,14,17,14,7.70
2017,02,14,17,15,7.70
2017,02,14,17,16,7.70
2017,02,14,17,17,7.60
2017,02,14,17,18,7.60
2017,02,14,17,19,7.60
2017,02,14,17,20,7.60
2017,02,14,17,21,7.60
2017,02,14,17,22,7.60
2017,02,14,17,23,7.60
2017,02,14,17,24,7.60
2017,02,14,17,25,7.60
2017,02,14,17,26,7.60
2017,02,14,17,27,7.60
2017,02,14,17,28,7.60
2017,02,14,17,29,7.60
2017,02,14,17,30,7.60
2017,02,14,17,31,7.70
2017,02,14,17,32,7.70
2017,02,14,17,33,7.70
2017,02,14,17,34,7.70
2017,02,14,17,35,7.70
2017,02,14,17,36,7.60
2017,02,14,17,37,7.60
2017,02,14,17,38,7.60
2017,02,14,17,39,7.60
2017,02,14,17,40,7.60
2017,02,14,17,41,7.60
2017,02,14,17,42,7.50
2017,02,14,17,43,7.50
2017,02,14,17,44,7.50
2017,02,14,17,45,7.60
2017,02,14,17,46,7.60
2017,02,14,17,47,7.50
2017,02,14,17,48,7.50
2017,02,14,17,49,7.50
2017,02,14,17,50,7.40
2017,02,14,17,51,7.40
2017,02,14,17,52,7.30
2017,02,14,17,53,7.30
2017,02,14,17,54,7.30